Briseno, Mexico

8:35 AM CST on February 23, 2017 (GMT -0600)
Gen Leobardo C Ruiz International

Weather History for MMZC - August, 2013

Change the Weather History Date:

Tuesday, August 20, 2013

  Actual Average Record
Temperature  
Mean Temperature 62 °F -  
Max Temperature 77 °F 74 °F 84 °F (2008)
Min Temperature 48 °F 51 °F 48 °F (2013)
Degree Days  
Heating Degree Days 2    
Growing Degree Days 12 (Base 50)    
Moisture  
Dew Point 40 °F    
Average Humidity 42    
Maximum Humidity 71    
Minimum Humidity 22    
Precipitation  
Precipitation 0.00 in - - ()
Sea Level Pressure  
Sea Level Pressure 30.25 in    
Wind  
Wind Speed 7 mph ()    
Max Wind Speed 16 mph    
Max Gust Speed -    
Visibility 9.6 miles    
Events      
Averages and records for this station are not official NWS values.
T = Trace of Precipitation, MM = Missing Value Source: Averaged Metar Reports

Daily Weather History Graph

Daily Weather History Graph

Search for Another Location

Airport or City:

Trip Planner

Search our weather history database for the weather conditions in past years. The results will help you decide how hot, cold, wet, or windy it might be!

Date:

Astronomy

Aug. 20, 2013 Rise Set
Actual Time 7:29 AM CDT 8:18 PM CDT
Civil Twilight 7:06 AM CDT 8:41 PM CDT
Nautical Twilight 6:38 AM CDT 9:08 PM CDT
Astronomical Twilight 6:10 AM CDT 9:36 PM CDT
Moon 7:59 PM CDT (8/20) 6:58 AM CDT (8/20)
Length of Visible Light 13h 35m
Length of Day
12h 49m
Full, 100% of the Moon is Illuminated
Aug 20
Full
Aug 20
Full
Aug 28
Last Quarter
Sep 5
New
Sep 12
First Quarter

Hourly Weather History & Observations

Time (CDT) Temp. Dew Point Humidity Pressure Visibility Wind Dir Wind Speed Gust Speed Precip Events Conditions
12:40 AM 62.6 °F 39.2 °F 42% 30.26 in 10.0 mi North 12.7 mph - N/A   Partly Cloudy
1:44 AM 60.8 °F 39.2 °F 45% 30.28 in 10.0 mi North 4.6 mph - N/A   Partly Cloudy
2:40 AM 57.2 °F 42.8 °F 59% 30.28 in 10.0 mi East 8.1 mph - N/A   Clear
4:41 AM 55.4 °F 41.0 °F 58% 30.25 in 10.0 mi South 3.5 mph - N/A   Clear
5:49 AM 53.6 °F 42.8 °F 67% 30.23 in 10.0 mi SE 4.6 mph - N/A   Clear
6:44 AM 48.2 °F 37.4 °F 66% 30.23 in 10.0 mi Calm Calm - N/A   Clear
7:40 AM 48.2 °F 39.2 °F 71% 30.25 in 8.0 mi West 5.8 mph - N/A   Clear
8:41 AM 55.4 °F 42.8 °F 63% 30.28 in 8.0 mi NW 4.6 mph - N/A   Clear
9:42 AM 60.8 °F 44.6 °F 55% 30.29 in 8.0 mi SSW 3.5 mph - N/A   Clear
10:41 AM 66.2 °F 44.6 °F 46% 30.31 in 8.0 mi SSE 8.1 mph - N/A   Clear
11:42 AM 68.0 °F 44.6 °F 43% 30.30 in 8.0 mi Calm Calm - N/A   Partly Cloudy
12:40 PM 73.4 °F 44.6 °F 36% 30.30 in 10.0 mi East 11.5 mph - N/A   Scattered Clouds
1:41 PM 73.4 °F 42.8 °F 33% 30.28 in 10.0 mi East 11.5 mph - N/A   Scattered Clouds
2:42 PM 75.2 °F 39.2 °F 27% 30.25 in 10.0 mi ESE 12.7 mph - N/A   Mostly Cloudy
3:43 PM 77.0 °F 39.2 °F 26% 30.22 in 10.0 mi East 13.8 mph - N/A   Mostly Cloudy
5:01 PM 77.0 °F 37.4 °F 24% 30.21 in 10.0 mi SE 13.8 mph - N/A   Mostly Cloudy
5:40 PM 77.0 °F 35.6 °F 22% 30.20 in 10.0 mi East 13.8 mph - N/A   Mostly Cloudy
6:43 PM 75.2 °F 35.6 °F 24% 30.19 in 10.0 mi ENE 5.8 mph - N/A   Scattered Clouds
7:43 PM 73.4 °F 33.8 °F 23% 30.20 in 10.0 mi East 10.4 mph - N/A   Scattered Clouds
8:43 PM 68.0 °F 32.0 °F 26% 30.21 in 10.0 mi ESE 4.6 mph - N/A   Scattered Clouds
9:42 PM 66.2 °F 35.6 °F 32% 30.22 in 10.0 mi SE 6.9 mph - N/A   Scattered Clouds
10:43 PM 66.2 °F 37.4 °F 35% 30.25 in 10.0 mi ESE 6.9 mph - N/A   Scattered Clouds
11:42 PM 64.4 °F 42.8 °F 45% 30.28 in 10.0 mi SE 16.1 mph - N/A   Clear